Tracking 18032 objects as of 25-March-2017
HD Live streaming from Space Station
objects crossing your sky now

HELIOS 1B

Track HELIOS 1B now!
10-day predictions
HELIOS 1B is classified as:


NORAD ID: 25977
Int'l Code: 1999-064A
Perigee: 628.3 km
Apogee: 630.6 km
Inclination: 98.1 °
Period: 97.2 minutes
Semi major axis: 7000 km
RCS: 8.0113 m2 (large)
Launch date: December 3, 1999
Source: France (FR)
Launch site: FRENCH GUIANA (FRGUI)

Helios 1B was a French military photo-reconnoissance spacecraft launched by an Ariane rocket at 16:22 UT.
Your satellite tracking list
Your tracking list is empty





NASA's NSSDC Master Catalog

Two Line Element Set (TLE):
1 25977U 99064A   17083.91390253 +.00000174 +00000-0 +28790-4 0  9991
2 25977 098.1417 193.9202 0001639 142.9092 217.2234 14.82233355200227
Source of the keplerian elements: AFSPC